Time,TemperatureF,DewpointF,PressureIn,WindDirection,WindDirectionDegrees,WindSpeedMPH,WindSpeedGustMPH,Humidity,HourlyPrecipIn,Conditions,Clouds,dailyrainin,SoftwareType,DateUTC
2013-07-07 00:01:00,75.9,68.6,28.66,South,180,8.1,8.1,78,0.00,,,0.00,WeatherDisplay:10.37,2013-07-07 05:01:00,
2013-07-07 00:06:00,75.9,68.6,28.65,South,180,8.1,8.1,78,0.00,,,0.00,WeatherDisplay:10.37,2013-07-07 05:06:00,
2013-07-07 00:11:00,75.6,68.6,28.65,South,180,9.2,9.2,79,0.00,,,0.00,WeatherDisplay:10.37,2013-07-07 05:11:00,
2013-07-07 00:16:00,75.4,68.0,28.65,SSE,158,11.5,11.5,78,0.00,,,0.00,WeatherDisplay:10.37,2013-07-07 05:16:00,
2013-07-07 00:22:00,75.6,68.2,28.65,South,180,10.4,10.4,78,0.00,,,0.00,WeatherDisplay:10.37,2013-07-07 05:22:00,
2013-07-07 00:27:00,75.6,68.2,28.65,South,180,9.2,9.2,78,0.00,,,0.00,WeatherDisplay:10.37,2013-07-07 05:27:00,
2013-07-07 00:32:00,75.6,68.2,28.65,South,180,10.4,10.4,78,0.00,,,0.00,WeatherDisplay:10.37,2013-07-07 05:32:00,
2013-07-07 00:38:00,75.4,68.0,28.65,SE,135,12.7,12.7,78,0.00,,,0.00,WeatherDisplay:10.37,2013-07-07 05:38:00,
2013-07-07 00:43:00,75.2,67.9,28.64,South,180,10.4,10.4,78,0.00,,,0.00,WeatherDisplay:10.37,2013-07-07 05:43:00,
2013-07-07 00:48:00,75.0,68.1,28.65,South,180,11.5,11.5,79,0.00,,,0.00,WeatherDisplay:10.37,2013-07-07 05:48:00,
2013-07-07 00:53:00,75.0,68.1,28.65,SSE,158,10.4,10.4,79,0.00,,,0.00,WeatherDisplay:10.37,2013-07-07 05:53:00,
2013-07-07 00:58:00,74.7,67.7,28.65,South,180,8.1,8.1,79,0.00,,,0.00,WeatherDisplay:10.37,2013-07-07 05:58:00,
2013-07-07 01:03:00,74.7,67.7,28.65,South,180,6.9,6.9,79,0.00,,,0.00,WeatherDisplay:10.37,2013-07-07 06:03:00,
2013-07-07 01:08:00,74.5,67.9,28.65,SE,135,8.1,8.1,80,0.00,,,0.00,WeatherDisplay:10.37,2013-07-07 06:08:00,
2013-07-07 01:14:00,74.3,67.7,28.65,South,180,9.2,9.2,80,0.00,,,0.00,WeatherDisplay:10.37,2013-07-07 06:14:00,
2013-07-07 01:19:00,74.3,67.7,28.65,SE,135,8.1,8.1,80,0.00,,,0.00,WeatherDisplay:10.37,2013-07-07 06:19:00,
2013-07-07 01:24:00,74.1,67.6,28.64,South,180,9.2,9.2,80,0.00,,,0.00,WeatherDisplay:10.37,2013-07-07 06:24:00,
2013-07-07 01:29:00,73.9,67.4,28.64,SE,135,8.1,8.1,80,0.00,,,0.00,WeatherDisplay:10.37,2013-07-07 06:29:00,
2013-07-07 01:35:00,73.8,67.2,28.64,South,180,10.4,10.4,80,0.00,,,0.00,WeatherDisplay:10.37,2013-07-07 06:35:00,
2013-07-07 01:40:00,73.8,67.6,28.64,SE,135,8.1,8.1,81,0.00,,,0.00,WeatherDisplay:10.37,2013-07-07 06:40:00,
2013-07-07 01:45:00,73.6,67.4,28.64,SE,135,8.1,8.1,81,0.00,,,0.00,WeatherDisplay:10.37,2013-07-07 06:45:00,
2013-07-07 01:51:00,73.4,67.2,28.64,South,180,8.1,8.1,81,0.00,,,0.00,WeatherDisplay:10.37,2013-07-07 06:51:00,
2013-07-07 01:56:00,73.2,67.0,28.64,SE,135,8.1,8.1,81,0.00,,,0.00,WeatherDisplay:10.37,2013-07-07 06:56:00,
2013-07-07 02:01:00,73.2,67.4,28.65,SE,135,6.9,6.9,82,0.00,,,0.00,WeatherDisplay:10.37,2013-07-07 07:01:00,
2013-07-07 02:06:00,73.2,67.4,28.65,SE,135,6.9,6.9,82,0.00,,,0.00,WeatherDisplay:10.37,2013-07-07 07:06:00,
2013-07-07 02:11:00,73.0,67.2,28.65,South,180,8.1,8.1,82,0.00,,,0.00,WeatherDisplay:10.37,2013-07-07 07:11:00,
2013-07-07 02:17:00,72.9,67.0,28.64,South,180,8.1,8.1,82,0.00,,,0.00,WeatherDisplay:10.37,2013-07-07 07:17:00,
2013-07-07 02:22:00,72.7,67.2,28.65,SE,135,8.1,8.1,83,0.00,,,0.00,WeatherDisplay:10.37,2013-07-07 07:22:00,
2013-07-07 02:27:00,72.5,67.0,28.65,South,180,6.9,6.9,83,0.00,,,0.00,WeatherDisplay:10.37,2013-07-07 07:27:00,
2013-07-07 02:32:00,72.3,66.9,28.64,SE,135,8.1,8.1,83,0.00,,,0.00,WeatherDisplay:10.37,2013-07-07 07:32:00,
2013-07-07 02:37:00,72.3,66.9,28.64,South,180,6.9,6.9,83,0.00,,,0.00,WeatherDisplay:10.37,2013-07-07 07:37:00,
2013-07-07 02:42:00,72.1,66.7,28.64,SSE,158,6.9,6.9,83,0.00,,,0.00,WeatherDisplay:10.37,2013-07-07 07:42:00,
2013-07-07 02:48:00,72.1,66.7,28.65,South,180,6.9,6.9,83,0.00,,,0.00,WeatherDisplay:10.37,2013-07-07 07:48:00,
2013-07-07 02:53:00,71.8,66.7,28.65,South,180,8.1,8.1,84,0.00,,,0.00,WeatherDisplay:10.37,2013-07-07 07:53:00,
2013-07-07 02:58:00,71.8,66.7,28.65,SSE,158,6.9,6.9,84,0.00,,,0.00,WeatherDisplay:10.37,2013-07-07 07:58:00,
2013-07-07 03:03:00,71.6,66.5,28.64,South,180,9.2,9.2,84,0.00,,,0.00,WeatherDisplay:10.37,2013-07-07 08:03:00,
2013-07-07 03:08:00,71.6,66.5,28.64,SE,135,9.2,9.2,84,0.00,,,0.00,WeatherDisplay:10.37,2013-07-07 08:08:00,
2013-07-07 03:13:00,71.4,66.7,28.64,South,180,5.8,5.8,85,0.00,,,0.00,WeatherDisplay:10.37,2013-07-07 08:13:00,
2013-07-07 03:19:00,71.2,66.5,28.65,South,180,8.1,8.1,85,0.00,,,0.00,WeatherDisplay:10.37,2013-07-07 08:19:00,
2013-07-07 03:24:00,71.2,66.8,28.64,South,180,6.9,6.9,86,0.00,,,0.00,WeatherDisplay:10.37,2013-07-07 08:24:00,
2013-07-07 03:29:00,71.1,66.7,28.64,South,180,8.1,8.1,86,0.00,,,0.00,WeatherDisplay:10.37,2013-07-07 08:29:00,
2013-07-07 03:34:00,70.9,66.5,28.64,SE,135,4.6,4.6,86,0.00,,,0.00,WeatherDisplay:10.37,2013-07-07 08:34:00,
2013-07-07 03:39:00,70.7,66.3,28.64,South,180,8.1,8.1,86,0.00,,,0.00,WeatherDisplay:10.37,2013-07-07 08:39:00,
2013-07-07 03:44:00,70.5,66.5,28.64,SE,135,8.1,8.1,87,0.00,,,0.00,WeatherDisplay:10.37,2013-07-07 08:44:00,
2013-07-07 03:49:00,70.5,66.5,28.64,SE,135,5.8,5.8,87,0.00,,,0.00,WeatherDisplay:10.37,2013-07-07 08:49:00,
2013-07-07 03:55:00,70.3,66.3,28.64,SE,135,5.8,5.8,87,0.00,,,0.00,WeatherDisplay:10.37,2013-07-07 08:55:00,
2013-07-07 04:00:00,70.3,66.3,28.64,South,180,6.0,6.0,87,0.00,,,0.00,WeatherDisplay:10.37,2013-07-07 09:00:00,
2013-07-07 04:05:00,70.3,66.3,28.64,South,180,5.8,5.8,87,0.00,,,0.00,WeatherDisplay:10.37,2013-07-07 09:05:00,
2013-07-07 04:10:00,70.0,65.9,28.64,SE,135,5.8,5.8,87,0.00,,,0.00,WeatherDisplay:10.37,2013-07-07 09:10:00,
2013-07-07 04:15:00,70.0,65.9,28.64,SE,135,5.8,5.8,87,0.00,,,0.00,WeatherDisplay:10.37,2013-07-07 09:15:00,
2013-07-07 04:20:00,69.8,65.8,28.64,SE,135,5.8,5.8,87,0.00,,,0.00,WeatherDisplay:10.37,2013-07-07 09:20:00,
2013-07-07 04:25:00,69.8,65.8,28.64,South,180,5.8,5.8,87,0.00,,,0.00,WeatherDisplay:10.37,2013-07-07 09:25:00,
2013-07-07 04:31:00,69.8,65.8,28.64,SSE,150,3.0,7.0,87,0.00,,,0.00,WeatherDisplay:10.37,2013-07-07 09:31:00,
2013-07-07 04:36:00,69.8,65.8,28.64,South,180,5.8,5.8,87,0.00,,,0.00,WeatherDisplay:10.37,2013-07-07 09:36:00,
2013-07-07 04:41:00,69.6,65.6,28.64,South,180,5.8,5.8,87,0.00,,,0.00,WeatherDisplay:10.37,2013-07-07 09:41:00,
2013-07-07 04:46:00,69.6,65.6,28.64,South,180,5.8,5.8,87,0.00,,,0.00,WeatherDisplay:10.37,2013-07-07 09:46:00,
2013-07-07 04:51:00,69.6,65.6,28.64,SE,135,6.0,6.0,87,0.00,,,0.00,WeatherDisplay:10.37,2013-07-07 09:51:00,
2013-07-07 04:56:00,69.6,65.6,28.64,South,180,5.8,5.8,87,0.00,,,0.00,WeatherDisplay:10.37,2013-07-07 09:56:00,
2013-07-07 05:01:00,69.6,65.6,28.64,SE,135,4.6,4.6,87,0.00,,,0.00,WeatherDisplay:10.37,2013-07-07 10:01:00,
2013-07-07 05:07:00,69.4,65.1,28.64,SSE,158,5.8,5.8,86,0.00,,,0.00,WeatherDisplay:10.37,2013-07-07 10:07:00,
2013-07-07 05:12:00,69.3,64.9,28.64,South,180,5.8,5.8,86,0.00,,,0.00,WeatherDisplay:10.37,2013-07-07 10:12:00,
2013-07-07 05:17:00,69.4,65.1,28.64,South,180,5.8,5.8,86,0.00,,,0.00,WeatherDisplay:10.37,2013-07-07 10:17:00,
2013-07-07 05:22:00,69.3,65.2,28.64,South,180,5.8,5.8,87,0.00,,,0.00,WeatherDisplay:10.37,2013-07-07 10:22:00,
2013-07-07 05:28:00,69.3,65.2,28.64,South,180,5.8,5.8,87,0.00,,,0.00,WeatherDisplay:10.37,2013-07-07 10:28:00,
2013-07-07 05:33:00,69.3,65.2,28.64,South,180,5.8,5.8,87,0.00,,,0.00,WeatherDisplay:10.37,2013-07-07 10:33:00,
2013-07-07 05:38:00,69.1,65.0,28.64,South,180,5.8,5.8,87,0.00,,,0.00,WeatherDisplay:10.37,2013-07-07 10:38:00,
2013-07-07 05:43:00,69.1,65.4,28.64,South,180,6.9,6.9,88,0.00,,,0.00,WeatherDisplay:10.37,2013-07-07 10:43:00,
2013-07-07 05:48:00,68.9,65.2,28.64,SSE,158,6.0,6.0,88,0.00,,,0.00,WeatherDisplay:10.37,2013-07-07 10:48:00,
2013-07-07 05:53:00,68.7,65.0,28.64,South,180,6.9,6.9,88,0.00,,,0.00,WeatherDisplay:10.37,2013-07-07 10:53:00,
2013-07-07 05:58:00,68.7,65.0,28.64,South,180,6.9,6.9,88,0.00,,,0.00,WeatherDisplay:10.37,2013-07-07 10:58:00,
2013-07-07 06:04:00,68.7,65.0,28.64,South,180,6.9,6.9,88,0.00,,,0.00,WeatherDisplay:10.37,2013-07-07 11:04:00,
2013-07-07 06:09:00,68.7,65.0,28.65,South,180,4.6,4.6,88,0.00,,,0.00,WeatherDisplay:10.37,2013-07-07 11:09:00,
2013-07-07 06:14:00,68.7,65.0,28.65,South,180,5.8,5.8,88,0.00,,,0.00,WeatherDisplay:10.37,2013-07-07 11:14:00,
2013-07-07 06:19:00,68.7,65.0,28.65,South,180,5.8,5.8,88,0.00,,,0.00,WeatherDisplay:10.37,2013-07-07 11:19:00,
2013-07-07 06:24:00,68.7,65.0,28.65,South,180,5.8,5.8,88,0.00,,,0.00,WeatherDisplay:10.37,2013-07-07 11:24:00,
2013-07-07 06:29:00,69.1,65.0,28.65,South,180,6.9,6.9,87,0.00,,,0.00,WeatherDisplay:10.37,2013-07-07 11:29:00,
2013-07-07 06:35:00,69.3,65.2,28.65,South,180,6.9,6.9,87,0.00,,,0.00,WeatherDisplay:10.37,2013-07-07 11:35:00,
2013-07-07 06:40:00,69.6,65.6,28.66,South,180,5.8,5.8,87,0.00,,,0.00,WeatherDisplay:10.37,2013-07-07 11:40:00,
2013-07-07 06:45:00,69.8,65.4,28.65,South,180,5.8,5.8,86,0.00,,,0.00,WeatherDisplay:10.37,2013-07-07 11:45:00,
2013-07-07 06:50:00,70.0,65.6,28.66,South,180,5.8,5.8,86,0.00,,,0.00,WeatherDisplay:10.37,2013-07-07 11:50:00,
2013-07-07 06:55:00,70.5,65.8,28.66,SE,135,8.1,8.1,85,0.00,,,0.00,WeatherDisplay:10.37,2013-07-07 11:55:00,
2013-07-07 07:00:00,70.7,65.6,28.66,SSE,158,5.8,5.8,84,0.00,,,0.00,WeatherDisplay:10.37,2013-07-07 12:00:00,
2013-07-07 07:05:00,70.7,65.6,28.66,SSE,158,4.6,4.6,84,0.00,,,0.00,WeatherDisplay:10.37,2013-07-07 12:05:00,
2013-07-07 07:11:00,71.6,65.8,28.66,SE,135,6.9,6.9,82,0.00,,,0.00,WeatherDisplay:10.37,2013-07-07 12:11:00,
2013-07-07 07:16:00,72.0,65.8,28.65,South,180,9.2,9.2,81,0.00,,,0.00,WeatherDisplay:10.37,2013-07-07 12:16:00,
2013-07-07 07:21:00,72.3,66.2,28.66,SE,135,8.1,8.1,81,0.00,,,0.00,WeatherDisplay:10.37,2013-07-07 12:21:00,
2013-07-07 07:26:00,72.9,66.3,28.66,South,180,5.8,5.8,80,0.00,,,0.00,WeatherDisplay:10.37,2013-07-07 12:26:00,
2013-07-07 07:31:00,73.0,66.1,28.66,South,180,9.2,9.2,79,0.00,,,0.00,WeatherDisplay:10.37,2013-07-07 12:31:00,
2013-07-07 07:37:00,73.4,66.5,28.66,South,180,6.9,6.9,79,0.00,,,0.00,WeatherDisplay:10.37,2013-07-07 12:37:00,
2013-07-07 07:42:00,73.8,66.8,28.66,South,180,8.1,8.1,79,0.00,,,0.00,WeatherDisplay:10.37,2013-07-07 12:42:00,
2013-07-07 07:47:00,74.1,66.4,28.66,South,180,6.9,6.9,77,0.00,,,0.00,WeatherDisplay:10.37,2013-07-07 12:47:00,
2013-07-07 07:52:00,74.5,66.8,28.67,SSE,158,9.2,9.2,77,0.00,,,0.00,WeatherDisplay:10.37,2013-07-07 12:52:00,
2013-07-07 07:57:00,74.8,66.8,28.67,SW,225,8.1,8.1,76,0.00,,,0.00,WeatherDisplay:10.37,2013-07-07 12:57:00,
2013-07-07 08:02:00,74.8,66.4,28.67,South,180,8.1,8.1,75,0.00,,,0.00,WeatherDisplay:10.37,2013-07-07 13:02:00,
2013-07-07 08:07:00,75.2,66.3,28.67,SE,135,8.1,8.1,74,0.00,,,0.00,WeatherDisplay:10.37,2013-07-07 13:07:00,
2013-07-07 08:13:00,75.7,66.5,28.67,South,180,10.4,10.4,73,0.00,,,0.00,WeatherDisplay:10.37,2013-07-07 13:13:00,
2013-07-07 08:18:00,75.9,66.6,28.67,South,180,11.5,11.5,73,0.00,,,0.00,WeatherDisplay:10.37,2013-07-07 13:18:00,
2013-07-07 08:23:00,76.3,67.0,28.67,South,180,5.8,5.8,73,0.00,,,0.00,WeatherDisplay:10.37,2013-07-07 13:23:00,
2013-07-07 08:28:00,76.6,66.9,28.67,South,180,10.4,10.4,72,0.00,,,0.00,WeatherDisplay:10.37,2013-07-07 13:28:00,
2013-07-07 08:33:00,77.0,66.5,28.67,South,180,10.4,10.4,70,0.00,,,0.00,WeatherDisplay:10.37,2013-07-07 13:33:00,
2013-07-07 08:38:00,77.0,66.9,28.67,SW,225,10.4,10.4,71,0.00,,,0.00,WeatherDisplay:10.37,2013-07-07 13:38:00,
2013-07-07 08:43:00,77.5,67.0,28.67,South,180,8.1,8.1,70,0.00,,,0.00,WeatherDisplay:10.37,2013-07-07 13:43:00,
2013-07-07 08:49:00,77.5,66.6,28.66,South,180,10.4,10.4,69,0.00,,,0.00,WeatherDisplay:10.37,2013-07-07 13:49:00,
2013-07-07 08:54:00,77.5,67.0,28.66,SE,135,9.2,9.2,70,0.00,,,0.00,WeatherDisplay:10.37,2013-07-07 13:54:00,
2013-07-07 08:59:00,77.9,66.9,28.66,South,180,10.4,10.4,69,0.00,,,0.00,WeatherDisplay:10.37,2013-07-07 13:59:00,
2013-07-07 09:04:00,77.9,66.9,28.66,SE,135,9.2,9.2,69,0.00,,,0.00,WeatherDisplay:10.37,2013-07-07 14:04:00,
2013-07-07 09:09:00,78.6,67.6,28.66,South,180,8.1,8.1,69,0.00,,,0.00,WeatherDisplay:10.37,2013-07-07 14:09:00,
2013-07-07 09:15:00,78.6,67.6,28.66,South,170,7.0,13.0,69,0.00,,,0.00,WeatherDisplay:10.37,2013-07-07 14:15:00,
2013-07-07 09:20:00,78.4,67.4,28.66,South,180,9.2,9.2,69,0.00,,,0.00,WeatherDisplay:10.37,2013-07-07 14:20:00,
2013-07-07 09:25:00,78.8,67.8,28.66,South,180,10.4,10.4,69,0.00,,,0.00,WeatherDisplay:10.37,2013-07-07 14:25:00,
2013-07-07 09:30:00,79.0,67.9,28.66,South,180,12.7,12.7,69,0.00,,,0.00,WeatherDisplay:10.37,2013-07-07 14:30:00,
2013-07-07 09:36:00,79.0,67.5,28.66,SW,225,10.4,10.4,68,0.00,,,0.00,WeatherDisplay:10.37,2013-07-07 14:36:00,
2013-07-07 09:41:00,78.8,68.2,28.67,SW,225,8.1,8.1,70,0.00,,,0.00,WeatherDisplay:10.37,2013-07-07 14:41:00,
2013-07-07 09:46:00,79.5,68.5,28.66,South,180,8.1,8.1,69,0.00,,,0.00,WeatherDisplay:10.37,2013-07-07 14:46:00,
2013-07-07 09:51:00,79.9,68.8,28.67,South,180,8.1,8.1,69,0.00,,,0.00,WeatherDisplay:10.37,2013-07-07 14:51:00,
2013-07-07 09:56:00,80.2,68.7,28.67,SSW,202,10.4,10.4,68,0.00,,,0.00,WeatherDisplay:10.37,2013-07-07 14:56:00,
2013-07-07 10:01:00,80.4,68.5,28.67,South,180,6.9,6.9,67,0.00,,,0.00,WeatherDisplay:10.37,2013-07-07 15:01:00,
2013-07-07 10:06:00,80.4,68.5,28.67,South,180,6.9,6.9,67,0.00,,,0.00,WeatherDisplay:10.37,2013-07-07 15:06:00,
2013-07-07 10:11:00,81.5,69.5,28.67,SW,225,8.1,8.1,67,0.00,,,0.00,WeatherDisplay:10.37,2013-07-07 15:11:00,
2013-07-07 10:17:00,82.2,69.7,28.67,SW,225,5.8,5.8,66,0.00,,,0.00,WeatherDisplay:10.37,2013-07-07 15:17:00,
2013-07-07 10:22:00,82.2,69.3,28.67,SW,225,8.1,8.1,65,0.00,,,0.00,WeatherDisplay:10.37,2013-07-07 15:22:00,
2013-07-07 10:27:00,82.8,69.3,28.67,SW,225,5.8,5.8,64,0.00,,,0.00,WeatherDisplay:10.37,2013-07-07 15:27:00,
2013-07-07 10:30:00,74.3,71.2,28.78,NW,317,8.0,16.0,90,0.00,CLR,,0.00,WeatherDisplay:10.37,2013-07-07 15:30:00,
2013-07-07 10:32:00,81.9,69.4,28.67,SW,225,8.1,8.1,66,0.00,,,0.00,WeatherDisplay:10.37,2013-07-07 15:32:00,
2013-07-07 10:38:00,82.0,69.6,28.67,SW,225,4.6,4.6,66,0.00,,,0.00,WeatherDisplay:10.37,2013-07-07 15:38:00,
2013-07-07 10:43:00,81.9,69.4,28.67,SW,225,3.5,0.0,66,0.00,,,0.00,WeatherDisplay:10.37,2013-07-07 15:43:00,
2013-07-07 10:48:00,82.6,70.1,28.67,SW,225,3.5,3.5,66,0.00,,,0.00,WeatherDisplay:10.37,2013-07-07 15:48:00,
2013-07-07 10:53:00,82.9,70.0,28.67,SW,225,5.8,5.8,65,0.00,,,0.00,WeatherDisplay:10.37,2013-07-07 15:53:00,
2013-07-07 10:58:00,83.8,70.4,28.67,SE,135,3.5,3.5,64,0.00,,,0.00,WeatherDisplay:10.37,2013-07-07 15:58:00,
2013-07-07 11:04:00,84.2,70.7,28.67,SW,225,3.5,3.5,64,0.00,,,0.00,WeatherDisplay:10.37,2013-07-07 16:04:00,
2013-07-07 11:09:00,84.9,70.9,28.67,SW,225,3.5,3.5,63,0.00,,,0.00,WeatherDisplay:10.37,2013-07-07 16:09:00,
2013-07-07 11:14:00,85.3,70.8,28.67,SSW,202,3.5,3.5,62,0.00,,,0.00,WeatherDisplay:10.37,2013-07-07 16:14:00,
2013-07-07 11:19:00,85.6,70.6,28.67,NW,315,3.5,3.5,61,0.00,,,0.00,WeatherDisplay:10.37,2013-07-07 16:19:00,
2013-07-07 11:24:00,85.8,70.3,28.68,SW,225,5.4,5.4,60,0.00,,,0.00,WeatherDisplay:10.37,2013-07-07 16:24:00,
2013-07-07 11:29:00,85.8,70.8,28.68,SW,225,3.5,3.5,61,0.00,,,0.00,WeatherDisplay:10.37,2013-07-07 16:29:00,
2013-07-07 11:35:00,86.5,71.0,28.68,SW,225,5.8,5.8,60,0.00,,,0.00,WeatherDisplay:10.37,2013-07-07 16:35:00,
2013-07-07 11:40:00,86.5,71.5,28.68,SW,225,5.8,5.8,61,0.00,,,0.00,WeatherDisplay:10.37,2013-07-07 16:40:00,
2013-07-07 11:45:00,86.5,70.5,28.68,West,270,3.5,3.5,59,0.00,,,0.00,WeatherDisplay:10.37,2013-07-07 16:45:00,
2013-07-07 11:50:00,87.6,71.0,28.68,East,90,4.6,4.6,58,0.00,,,0.00,WeatherDisplay:10.37,2013-07-07 16:50:00,
2013-07-07 11:55:00,88.5,71.9,28.67,NE,45,5.8,5.8,58,0.00,,,0.00,WeatherDisplay:10.37,2013-07-07 16:55:00,
2013-07-07 12:01:00,88.5,70.8,28.67,East,90,3.5,3.5,56,0.00,,,0.00,WeatherDisplay:10.37,2013-07-07 17:01:00,
2013-07-07 12:06:00,88.5,70.8,28.67,East,90,3.5,3.5,56,0.00,,,0.00,WeatherDisplay:10.37,2013-07-07 17:06:00,
2013-07-07 12:11:00,89.2,71.5,28.67,SE,135,5.8,5.8,56,0.00,,,0.00,WeatherDisplay:10.37,2013-07-07 17:11:00,
2013-07-07 12:16:00,89.2,72.0,28.67,East,90,5.8,5.8,57,0.00,,,0.00,WeatherDisplay:10.37,2013-07-07 17:16:00,
2013-07-07 12:21:00,89.1,71.8,28.67,NE,45,3.5,3.5,57,0.00,,,0.00,WeatherDisplay:10.37,2013-07-07 17:21:00,
2013-07-07 12:26:00,89.1,71.8,28.67,SE,135,5.8,5.8,57,0.00,,,0.00,WeatherDisplay:10.37,2013-07-07 17:26:00,
2013-07-07 12:32:00,88.9,71.2,28.67,East,90,5.8,5.8,56,0.00,,,0.00,WeatherDisplay:10.37,2013-07-07 17:32:00,
2013-07-07 12:37:00,89.2,70.4,28.67,SE,135,6.9,6.9,54,0.00,,,0.00,WeatherDisplay:10.37,2013-07-07 17:37:00,
2013-07-07 12:42:00,88.9,71.7,28.67,East,90,5.8,5.8,57,0.00,,,0.00,WeatherDisplay:10.37,2013-07-07 17:42:00,
2013-07-07 12:47:00,89.1,71.3,28.67,ESE,112,6.9,6.9,56,0.00,,,0.00,WeatherDisplay:10.37,2013-07-07 17:47:00,
2013-07-07 12:53:00,89.2,72.0,28.67,SE,135,5.8,5.8,57,0.00,,,0.00,WeatherDisplay:10.37,2013-07-07 17:53:00,
2013-07-07 12:58:00,88.0,70.8,28.67,East,90,5.8,5.8,57,0.00,,,0.00,WeatherDisplay:10.37,2013-07-07 17:58:00,
2013-07-07 13:03:00,88.5,71.9,28.67,East,90,2.3,2.3,58,0.00,,,0.00,WeatherDisplay:10.37,2013-07-07 18:03:00,
2013-07-07 13:08:00,90.3,72.0,28.67,ENE,68,3.5,3.5,55,0.00,,,0.00,WeatherDisplay:10.37,2013-07-07 18:08:00,
2013-07-07 13:14:00,90.5,72.7,28.67,East,90,6.9,6.9,56,0.00,,,0.00,WeatherDisplay:10.37,2013-07-07 18:14:00,
2013-07-07 13:19:00,90.9,71.4,28.67,SW,225,5.8,5.8,53,0.00,,,0.00,WeatherDisplay:10.37,2013-07-07 18:19:00,
2013-07-07 13:24:00,90.5,72.1,28.67,East,90,4.6,4.6,55,0.00,,,0.00,WeatherDisplay:10.37,2013-07-07 18:24:00,
2013-07-07 13:29:00,91.2,72.8,28.67,SE,135,3.5,3.5,55,0.00,,,0.00,WeatherDisplay:10.37,2013-07-07 18:29:00,
2013-07-07 13:34:00,91.2,72.2,28.67,East,90,6.9,6.9,54,0.00,,,0.00,WeatherDisplay:10.37,2013-07-07 18:34:00,
2013-07-07 13:39:00,92.3,72.7,28.67,SE,135,3.5,3.5,53,0.00,,,0.00,WeatherDisplay:10.37,2013-07-07 18:39:00,
2013-07-07 13:44:00,93.0,72.8,28.67,South,180,4.6,4.6,52,0.00,,,0.00,WeatherDisplay:10.37,2013-07-07 18:44:00,
2013-07-07 13:50:00,93.0,73.9,28.68,South,180,3.5,3.5,54,0.00,,,0.00,WeatherDisplay:10.37,2013-07-07 18:50:00,
2013-07-07 13:55:00,92.1,73.1,28.68,SE,135,4.6,0.0,54,0.00,,,0.00,WeatherDisplay:10.37,2013-07-07 18:55:00,
2013-07-07 14:00:00,92.7,71.9,28.67,SE,135,5.8,5.8,51,0.00,,,0.00,WeatherDisplay:10.37,2013-07-07 19:00:00,
2013-07-07 14:06:00,93.0,73.4,28.68,SE,135,5.8,5.8,53,0.00,,,0.00,WeatherDisplay:10.37,2013-07-07 19:06:00,
2013-07-07 14:11:00,93.2,72.4,28.68,South,180,6.9,6.9,51,0.00,,,0.00,WeatherDisplay:10.37,2013-07-07 19:11:00,
2013-07-07 14:16:00,92.3,71.6,28.68,South,180,4.6,4.6,51,0.00,,,0.00,WeatherDisplay:10.37,2013-07-07 19:16:00,
2013-07-07 14:21:00,92.3,71.6,28.68,South,180,3.5,3.5,51,0.00,,,0.00,WeatherDisplay:10.37,2013-07-07 19:21:00,
2013-07-07 14:26:00,92.3,73.2,28.68,SE,135,4.6,4.6,54,0.00,,,0.00,WeatherDisplay:10.37,2013-07-07 19:26:00,
2013-07-07 14:31:00,93.9,73.6,28.68,East,90,6.9,6.9,52,0.00,,,0.00,WeatherDisplay:10.37,2013-07-07 19:31:00,
2013-07-07 14:37:00,93.4,73.1,28.68,East,90,5.8,5.8,52,0.00,,,0.00,WeatherDisplay:10.37,2013-07-07 19:37:00,
2013-07-07 14:42:00,93.2,73.0,28.68,SW,225,3.5,3.5,52,0.00,,,0.00,WeatherDisplay:10.37,2013-07-07 19:42:00,
2013-07-07 14:47:00,92.7,73.0,28.67,SE,135,5.8,5.8,53,0.00,,,0.00,WeatherDisplay:10.37,2013-07-07 19:47:00,
2013-07-07 14:52:00,91.9,73.5,28.67,South,180,5.8,5.8,55,0.00,,,0.00,WeatherDisplay:10.37,2013-07-07 19:52:00,
2013-07-07 14:57:00,92.3,73.2,28.68,South,180,3.5,3.5,54,0.00,,,0.00,WeatherDisplay:10.37,2013-07-07 19:57:00,
2013-07-07 15:03:00,92.8,73.7,28.68,South,180,3.5,3.5,54,0.00,,,0.00,WeatherDisplay:10.37,2013-07-07 20:03:00,
2013-07-07 15:08:00,92.7,73.0,28.68,East,90,4.6,4.6,53,0.00,,,0.00,WeatherDisplay:10.37,2013-07-07 20:08:00,
2013-07-07 15:13:00,91.6,73.1,28.68,East,90,3.5,3.5,55,0.00,,,0.00,WeatherDisplay:10.37,2013-07-07 20:13:00,
2013-07-07 15:18:00,91.0,73.2,28.68,NE,45,6.9,6.9,56,0.00,,,0.00,WeatherDisplay:10.37,2013-07-07 20:18:00,
2013-07-07 15:23:00,91.0,73.2,28.68,NE,45,6.9,6.9,56,0.00,,,0.00,WeatherDisplay:10.37,2013-07-07 20:23:00,
2013-07-07 15:28:00,90.3,73.0,28.67,NE,45,4.6,4.6,57,0.00,,,0.00,WeatherDisplay:10.37,2013-07-07 20:28:00,
2013-07-07 15:34:00,90.0,73.2,28.68,NE,45,6.9,6.9,58,0.00,,,0.00,WeatherDisplay:10.37,2013-07-07 20:34:00,
2013-07-07 15:39:00,90.0,73.2,28.68,North,0,5.8,5.8,58,0.00,,,0.00,WeatherDisplay:10.37,2013-07-07 20:39:00,
2013-07-07 15:44:00,90.3,74.0,28.67,South,180,4.6,4.6,59,0.00,,,0.00,WeatherDisplay:10.37,2013-07-07 20:44:00,
2013-07-07 15:49:00,90.3,74.0,28.67,SE,135,4.6,4.6,59,0.00,,,0.00,WeatherDisplay:10.37,2013-07-07 20:49:00,
2013-07-07 15:54:00,90.9,73.5,28.67,SE,135,4.6,4.6,57,0.00,,,0.00,WeatherDisplay:10.37,2013-07-07 20:54:00,
2013-07-07 16:00:00,92.1,73.6,28.67,ESE,123,2.0,6.0,55,0.00,,,0.00,WeatherDisplay:10.37,2013-07-07 21:00:00,
2013-07-07 16:05:00,93.7,74.0,28.67,East,90,5.8,5.8,53,0.00,,,0.00,WeatherDisplay:10.37,2013-07-07 21:05:00,
2013-07-07 16:10:00,93.7,73.5,28.67,SE,135,5.8,5.8,52,0.00,,,0.00,WeatherDisplay:10.37,2013-07-07 21:10:00,
2013-07-07 16:15:00,93.9,73.6,28.67,East,90,4.6,4.6,52,0.00,,,0.00,WeatherDisplay:10.37,2013-07-07 21:15:00,
2013-07-07 16:20:00,92.7,73.0,28.67,NE,45,1.2,1.6,53,0.00,,,0.00,WeatherDisplay:10.37,2013-07-07 21:20:00,
2013-07-07 16:26:00,92.1,72.5,28.67,NE,45,3.5,3.5,53,0.00,,,0.00,WeatherDisplay:10.37,2013-07-07 21:26:00,
2013-07-07 16:31:00,92.3,74.3,28.67,SE,135,5.8,5.8,56,0.00,,,0.00,WeatherDisplay:10.37,2013-07-07 21:31:00,
2013-07-07 16:36:00,92.7,74.7,28.67,South,180,5.8,5.8,56,0.00,,,0.00,WeatherDisplay:10.37,2013-07-07 21:36:00,
2013-07-07 16:41:00,92.8,74.3,28.67,SE,135,5.8,5.8,55,0.00,,,0.00,WeatherDisplay:10.37,2013-07-07 21:41:00,
2013-07-07 16:46:00,92.8,73.7,28.66,South,180,5.8,5.8,54,0.00,,,0.00,WeatherDisplay:10.37,2013-07-07 21:46:00,
2013-07-07 16:52:00,91.2,73.9,28.67,SE,135,8.1,8.1,57,0.00,,,0.00,WeatherDisplay:10.37,2013-07-07 21:52:00,
2013-07-07 16:57:00,90.5,73.2,28.67,SE,135,8.1,8.1,57,0.00,,,0.00,WeatherDisplay:10.37,2013-07-07 21:57:00,
2013-07-07 17:02:00,90.3,73.5,28.68,East,90,3.5,3.5,58,0.00,,,0.00,WeatherDisplay:10.37,2013-07-07 22:02:00,
2013-07-07 17:07:00,90.1,73.4,28.68,SE,135,5.8,5.8,58,0.00,,,0.00,WeatherDisplay:10.37,2013-07-07 22:07:00,
2013-07-07 17:12:00,89.8,73.0,28.68,SE,135,4.6,4.6,58,0.00,,,0.00,WeatherDisplay:10.37,2013-07-07 22:12:00,
2013-07-07 17:17:00,89.6,73.9,28.68,East,90,4.6,4.6,60,0.00,,,0.00,WeatherDisplay:10.37,2013-07-07 22:17:00,
2013-07-07 17:22:00,89.4,73.2,28.68,SE,135,4.6,4.6,59,0.00,,,0.00,WeatherDisplay:10.37,2013-07-07 22:22:00,
2013-07-07 17:28:00,89.6,73.4,28.67,East,90,3.5,3.5,59,0.00,,,0.00,WeatherDisplay:10.37,2013-07-07 22:28:00,
2013-07-07 17:33:00,90.3,73.5,28.67,East,90,3.5,3.5,58,0.00,,,0.00,WeatherDisplay:10.37,2013-07-07 22:33:00,
2013-07-07 17:38:00,91.0,73.7,28.67,SE,135,3.5,3.5,57,0.00,,,0.00,WeatherDisplay:10.37,2013-07-07 22:38:00,
2013-07-07 17:43:00,91.2,73.3,28.67,East,90,3.5,3.5,56,0.00,,,0.00,WeatherDisplay:10.37,2013-07-07 22:43:00,
2013-07-07 17:48:00,91.2,73.3,28.67,East,90,3.5,3.5,56,0.00,,,0.00,WeatherDisplay:10.37,2013-07-07 22:48:00,
2013-07-07 17:54:00,90.0,73.7,28.67,SE,135,4.6,4.6,59,0.00,,,0.00,WeatherDisplay:10.37,2013-07-07 22:54:00,
2013-07-07 17:59:00,90.0,74.2,28.67,SE,135,3.5,3.5,60,0.00,,,0.00,WeatherDisplay:10.37,2013-07-07 22:59:00,
2013-07-07 18:04:00,90.3,74.5,28.67,SE,135,3.5,3.5,60,0.00,,,0.00,WeatherDisplay:10.37,2013-07-07 23:04:00,
2013-07-07 18:09:00,91.2,74.9,28.66,SE,135,4.6,4.6,59,0.00,,,0.00,WeatherDisplay:10.37,2013-07-07 23:09:00,
2013-07-07 18:14:00,91.4,74.5,28.66,SE,135,4.6,4.6,58,0.00,,,0.00,WeatherDisplay:10.37,2013-07-07 23:14:00,
2013-07-07 18:19:00,91.9,75.0,28.66,East,90,3.5,3.5,58,0.00,,,0.00,WeatherDisplay:10.37,2013-07-07 23:19:00,
2013-07-07 18:24:00,92.3,73.8,28.66,SE,135,5.8,5.8,55,0.00,,,0.00,WeatherDisplay:10.37,2013-07-07 23:24:00,
2013-07-07 18:30:00,91.0,73.2,28.66,East,90,5.8,5.8,56,0.00,,,0.00,WeatherDisplay:10.37,2013-07-07 23:30:00,
2013-07-07 18:35:00,91.0,74.2,28.67,East,90,5.8,5.8,58,0.00,,,0.00,WeatherDisplay:10.37,2013-07-07 23:35:00,
2013-07-07 18:40:00,89.8,74.0,28.66,SE,135,3.5,3.5,60,0.00,,,0.00,WeatherDisplay:10.37,2013-07-07 23:40:00,
2013-07-07 18:45:00,89.8,74.5,28.66,SE,135,3.5,3.5,61,0.00,,,0.00,WeatherDisplay:10.37,2013-07-07 23:45:00,
2013-07-07 18:50:00,89.8,74.5,28.66,SE,135,3.5,3.5,61,0.00,,,0.00,WeatherDisplay:10.37,2013-07-07 23:50:00,
2013-07-07 18:55:00,88.5,74.3,28.66,East,90,2.3,2.3,63,0.00,,,0.00,WeatherDisplay:10.37,2013-07-07 23:55:00,
2013-07-07 19:00:00,88.0,74.3,28.67,East,90,2.3,2.3,64,0.00,,,0.00,WeatherDisplay:10.37,2013-07-08 00:00:00,
2013-07-07 19:05:00,87.6,74.4,28.67,East,90,1.2,1.2,65,0.00,,,0.00,WeatherDisplay:10.37,2013-07-08 00:05:00,
2013-07-07 19:11:00,87.1,74.3,28.67,SE,135,1.6,1.6,66,0.00,,,0.00,WeatherDisplay:10.37,2013-07-08 00:11:00,
2013-07-07 19:16:00,86.5,74.3,28.67,East,90,1.2,1.2,67,0.00,,,0.00,WeatherDisplay:10.37,2013-07-08 00:16:00,
2013-07-07 19:21:00,86.4,74.5,28.68,NE,45,1.2,1.2,68,0.00,,,0.00,WeatherDisplay:10.37,2013-07-08 00:21:00,
2013-07-07 19:26:00,85.8,74.9,28.69,NW,315,1.2,1.2,70,0.00,,,0.00,WeatherDisplay:10.37,2013-07-08 00:26:00,
2013-07-07 19:31:00,85.5,74.6,28.69,NE,45,1.2,1.2,70,0.00,,,0.00,WeatherDisplay:10.37,2013-07-08 00:31:00,
2013-07-07 19:36:00,85.3,74.8,28.69,NE,45,1.2,1.2,71,0.00,,,0.00,WeatherDisplay:10.37,2013-07-08 00:36:00,
2013-07-07 19:41:00,84.9,74.5,28.69,North,0,1.2,0.0,71,0.00,,,0.00,WeatherDisplay:10.37,2013-07-08 00:41:00,
2013-07-07 19:47:00,84.7,74.3,28.69,North,0,0.0,0.0,71,0.00,,,0.00,WeatherDisplay:10.37,2013-07-08 00:47:00,
2013-07-07 19:52:00,84.7,74.7,28.69,NE,45,1.2,1.2,72,0.00,,,0.00,WeatherDisplay:10.37,2013-07-08 00:52:00,
2013-07-07 19:57:00,84.6,74.9,28.69,SE,135,1.2,0.0,73,0.00,,,0.00,WeatherDisplay:10.37,2013-07-08 00:57:00,
2013-07-07 20:02:00,84.4,75.2,28.69,NE,45,1.2,1.2,74,0.00,,,0.00,WeatherDisplay:10.37,2013-07-08 01:02:00,
2013-07-07 20:07:00,84.0,74.8,28.70,NE,45,1.2,0.0,74,0.00,,,0.00,WeatherDisplay:10.37,2013-07-08 01:07:00,
2013-07-07 20:12:00,83.7,74.9,28.70,NE,45,1.2,0.0,75,0.00,,,0.00,WeatherDisplay:10.37,2013-07-08 01:12:00,
2013-07-07 20:17:00,83.3,74.5,28.71,NW,315,1.2,1.2,75,0.00,,,0.00,WeatherDisplay:10.37,2013-07-08 01:17:00,
2013-07-07 20:22:00,83.1,75.2,28.72,NW,315,2.3,2.3,77,0.00,,,0.00,WeatherDisplay:10.37,2013-07-08 01:22:00,
2013-07-07 20:27:00,82.9,75.0,28.71,NW,315,1.2,1.2,77,0.00,,,0.00,WeatherDisplay:10.37,2013-07-08 01:27:00,
2013-07-07 20:32:00,82.9,75.0,28.72,NW,315,2.2,2.2,77,0.00,,,0.00,WeatherDisplay:10.37,2013-07-08 01:32:00,
2013-07-07 20:37:00,82.8,75.2,28.71,NW,315,1.2,1.2,78,0.00,,,0.00,WeatherDisplay:10.37,2013-07-08 01:37:00,
2013-07-07 20:43:00,82.6,75.0,28.72,West,270,1.2,1.2,78,0.00,,,0.00,WeatherDisplay:10.37,2013-07-08 01:43:00,
2013-07-07 20:48:00,82.4,74.8,28.72,NW,315,1.2,0.0,78,0.00,,,0.00,WeatherDisplay:10.37,2013-07-08 01:48:00,
2013-07-07 20:53:00,82.2,74.7,28.72,NW,315,0.0,0.0,78,0.00,,,0.00,WeatherDisplay:10.37,2013-07-08 01:53:00,
2013-07-07 20:58:00,82.0,74.5,28.73,NW,315,0.0,0.0,78,0.00,,,0.00,WeatherDisplay:10.37,2013-07-08 01:58:00,
2013-07-07 21:03:00,81.9,74.3,28.72,SE,135,1.2,0.0,78,0.00,,,0.00,WeatherDisplay:10.37,2013-07-08 02:03:00,
2013-07-07 21:08:00,81.9,74.3,28.73,West,270,0.0,0.7,78,0.00,,,0.00,WeatherDisplay:10.37,2013-07-08 02:08:00,
2013-07-07 21:14:00,81.7,74.1,28.73,NW,315,1.2,1.2,78,0.00,,,0.00,WeatherDisplay:10.37,2013-07-08 02:14:00,
2013-07-07 21:19:00,81.5,74.4,28.74,SW,225,1.2,1.2,79,0.00,,,0.00,WeatherDisplay:10.37,2013-07-08 02:19:00,
2013-07-07 21:24:00,81.1,73.6,28.76,North,0,15.0,15.0,78,0.00,,,0.00,WeatherDisplay:10.37,2013-07-08 02:24:00,
2013-07-07 21:29:00,77.5,68.6,28.76,NW,315,13.8,13.8,74,0.00,,,0.00,WeatherDisplay:10.37,2013-07-08 02:29:00,
2013-07-07 21:34:00,75.0,70.2,28.76,NW,315,10.4,10.4,85,0.00,,,0.00,WeatherDisplay:10.37,2013-07-08 02:34:00,
2013-07-07 21:41:00,73.4,70.0,28.79,NW,315,9.2,9.2,89,0.02,RA,,0.02,WeatherDisplay:10.37,2013-07-08 02:41:00,
2013-07-07 21:46:00,72.3,70.2,28.79,West,270,11.5,11.5,93,0.11,RA,,0.11,WeatherDisplay:10.37,2013-07-08 02:46:00,
2013-07-07 21:51:00,72.0,70.1,28.79,North,0,5.8,5.8,94,0.19,RA,,0.19,WeatherDisplay:10.37,2013-07-08 02:51:00,
2013-07-07 21:56:00,71.2,70.0,28.75,North,0,10.4,10.4,96,0.26,RA,,0.26,WeatherDisplay:10.37,2013-07-08 02:56:00,